Hourly Weather Roundup
Issued by NWS Central Illinois

Home | Current Version | Previous Version | Text Only | Print | Product List | Glossary On
Versions: 1 2 3 4 5 6 7 8 9 10 11 12 13 14 15 16 17 18 19 20 21 22 23 24 25 26 27 28 29 30 31 32 33 34 35 36 37 38 39 40 41 42 43 44 45 46 47 48 49 50
000
NZUS43 KILX 281310
HWRILX

AREA WEATHER ROUNDUP
NATIONAL WEATHER SERVICE, LINCOLN IL
800 AM CDT THU JUL 28 2016


CITY           SKY/WX    TMP DP  RH WIND       PRES   REMARKS
BLOOMINGTON    CLOUDY    75  70  84 E6        29.93R
CHAMPAIGN      TSTM      72  70  93 S8        29.93S VSB 1
DANVILLE       CLOUDY    72  71  95 E3        29.90S
DECATUR        CLOUDY    75  70  84 CALM      29.91S
EFFINGHAM      CLOUDY    74  74 100 CALM      29.93R FOG
FLORA          CLOUDY    75  74  96 SW3       29.92S
GALESBURG      SUNNY     74  71  91 NW5       29.92R
JACKSONVILLE   SUNNY     74  70  86 CALM      29.90S
LACON          MOSUNNY   75  72  88 E5        29.90S
LAWRENCEVILLE  CLOUDY    75  74  96 SW5       29.92S
LITCHFIELD       N/A    N/A N/A N/A MISG        N/A
$$


CITY           SKY/WX    TMP DP  RH WIND       PRES   REMARKS
LINCOLN        CLOUDY    75  74  97 CALM      29.91R
MACOMB         MOSUNNY   73  70  92 N6        29.94R
MATTOON        CLOUDY    74  72  93 S6        29.91R FOG
MT CARMEL AP   CLOUDY    74  72  94 S3        29.91F
OLNEY-NOBLE AP CLOUDY    73  73 100 CALM      29.93R
PARIS          CLOUDY    74  74 100 CALM      29.92S FOG
PEORIA         SUNNY     77  74  90 E5        29.91R
PONTIAC        NOT AVBL
RANTOUL        NOT AVBL
ROBINSON       CLOUDY    74  73  96 S3        29.92R
SPRINGFIELD    MOSUNNY   75  73  93 CALM      29.90F
TAYLORVILLE    CLOUDY    74  74  99 MISG      29.91S FOG
$$

...REGIONAL REPORTS...


CITY           SKY/WX    TMP DP  RH WIND       PRES   REMARKS
CHICAGO O`HARE CLOUDY    78  69  73 NE6       29.92R HX  80
KANKAKEE       CLOUDY    72  69  90 CALM      29.93S
MOLINE         SUNNY     77  70  79 W3        29.91R
MOUNT STERLING SUNNY     72  69  92 NW6       29.91R
MOUNT VERNON   CLOUDY    75  70  83 MISG      29.92R
PITTSFIELD     MOSUNNY   73  69  87 CALM      29.93R
QUINCY         SUNNY     72  72 100 W5        29.92R
ROCKFORD       CLOUDY    78  68  71 E3        29.93R HX  80
$$


CITY           SKY/WX    TMP DP  RH WIND       PRES   REMARKS
BURLINGTON     SUNNY     74  70  87 NW3       29.91S
CEDAR RAPIDS   MOSUNNY   69  69 100 NW7       29.92S
DES MOINES     MOSUNNY   73  66  78 N7        29.97R
KIRKSVILLE     SUNNY     75  69  81 CALM      29.96R
OTTUMWA        SUNNY     71  68  90 NW6       29.94S
ST LOUIS       MOSUNNY   80  70  71 SW6       29.91S HX  83
$$


CITY           SKY/WX    TMP DP  RH WIND       PRES   REMARKS
TERRE HAUTE    CLOUDY    76  71  85 S3        29.92R
EVANSVILLE     CLOUDY    74  72  93 S5        29.92S
INDIANAPOLIS   CLOUDY    76  70  82 CALM      29.93R
LAFAYETTE      MOSUNNY   74  71  91 CALM      29.92R
MADISON        CLOUDY    71  66  84 E8        29.92S
MILWAUKEE      FOG       71  69  93 N6        29.94R VSB 1/4
$$






USA.gov is the U.S. government's official web portal to all federal, state and local government web resources and services.